DW0494 Weather Reports


Display with metric or nautical units.
time (UTC)temp
F
wind
direction
speed
MPH
gust
MPH
rain 1hr
in
rain 24hr
in
rain mn
in
humidity
%
barometer
mb
20260507112903 65 348 0.0 0.0 0.01 0.01 0.01 83 1022.1
20260507105905 65 347 0.0 1.0 0.01 0.01 0.01 79 1022.1
20260507105403 66 283 0.0 0.0 0.01 0.01 0.01 80 1022.2
20260507104903 66 283 0.0 1.0 0.00 0.00 0.00 79 1022.2
20260507104405 67 282 0.0 1.0 0.00 0.00 0.00 78 1022.1
20260507103905 67 294 0.0 1.0 0.00 0.00 0.00 76 1022.2
20260507103403 67 295 0.0 2.0 0.00 0.00 0.00 75 1022.2
20260507102904 67 295 0.0 2.0 0.00 0.00 0.00 71 1022.1
20260507102403 68 314 1.0 2.0 0.00 0.00 0.00 69 1022.1
20260507101904 68 285 0.0 2.0 0.00 0.00 0.00 70 1022.1
20260507100903 68 257 0.0 5.0 0.00 0.00 0.00 68 1022.1
20260507100403 68 243 2.0 5.0 0.00 0.00 0.00 70 1022.1
20260507095905 68 249 2.0 5.0 0.00 0.00 0.00 68 1022.1
20260507095404 68 245 1.0 3.0 0.00 0.00 0.00 67 1022.1
20260507094905 68 240 0.0 3.0 0.00 0.00 0.00 67 1021.9
20260507093405 69 238 1.0 3.0 0.00 0.00 0.00 64 1021.8
20260507092904 69 269 0.0 1.0 0.00 0.00 0.00 64 1021.7
20260507092406 69 287 0.0 1.0 0.00 0.00 0.00 62 1021.5
20260507091904 69 296 0.0 1.0 0.00 0.00 0.00 61 1021.4
20260507091404 69 350 0.0 2.0 0.00 0.00 0.00 64 1021.4
20260507090904 68 213 0.0 2.0 0.00 0.00 0.00 64 1021.3
20260507090405 68 268 0.0 2.0 0.00 0.00 0.00 65 1021.3
20260507084404 68 219 0.0 1.0 0.00 0.00 0.00 66 1021.1
20260507083903 68 217 0.0 2.0 0.00 0.00 0.00 65 1021.1
20260507083403 68 221 0.0 2.0 0.00 0.00 0.00 68 1021.1
20260507082905 68 238 0.0 3.0 0.00 0.00 0.00 68 1021.1
20260507082404 68 244 1.0 3.0 0.00 0.00 0.00 68 1021.0
20260507081904 68 237 0.0 3.0 0.00 0.00 0.00 69 1021.0
20260507081405 68 229 1.0 3.0 0.00 0.00 0.00 67 1021.0
20260507080903 69 249 0.0 2.0 0.00 0.00 0.00 68 1020.9
20260507075903 69 220 0.0 2.0 0.00 0.00 0.00 67 1020.8
20260507075403 68 196 0.0 2.0 0.00 0.00 0.00 69 1020.7
20260507074905 68 251 1.0 2.0 0.00 0.00 0.00 68 1020.6
20260507074404 69 192 0.0 1.0 0.00 0.00 0.00 68 1020.5
20260507073903 69 211 0.0 1.0 0.00 0.00 0.00 67 1020.3
20260507073404 68 214 0.0 2.0 0.00 0.00 0.00 69 1020.3
20260507072905 68 209 0.0 2.0 0.00 0.00 0.00 70 1020.4
20260507071904 68 238 1.0 2.0 0.00 0.00 0.00 69 1020.2
20260507071404 68 238 0.0 2.0 0.00 0.00 0.00 70 1020.3
20260507070404 68 277 1.0 2.0 0.00 0.00 0.00 71 1020.2
20260507065907 66 248 0.0 1.0 0.00 0.00 0.00 73 1020.3
20260507065404 66 279 0.0 1.0 0.00 0.00 0.00 72 1020.4
20260507064404 67 231 0.0 3.0 0.00 0.00 0.00 72 1020.5
20260507063905 67 248 0.0 3.0 0.00 0.00 0.00 71 1020.5
20260507062403 68 280 1.0 3.0 0.00 0.00 0.00 70 1020.5
20260507061906 68 275 1.0 3.0 0.00 0.00 0.00 68 1020.4
20260507060903 70 300 1.0 2.0 0.00 0.00 0.00 64 1020.2
20260507060404 70 238 0.0 2.0 0.00 0.00 0.00 65 1020.2
20260507055405 70 201 0.0 1.0 0.00 0.00 0.00 64 1020.1
20260507054903 70 203 0.0 1.0 0.00 0.00 0.00 66 1020.0
20260507053904 68 205 0.0 2.0 0.00 0.00 0.00 69 1020.0
20260507053405 68 249 1.0 2.0 0.00 0.00 0.00 68 1020.1
20260507052406 68 329 0.0 1.0 0.00 0.00 0.00 67 1019.9
20260507051904 67 38 0.0 0.0 0.00 0.00 0.00 68 1019.9
20260507050903 67 38 0.0 0.0 0.00 0.00 0.00 67 1019.8
20260507050405 67 38 0.0 0.0 0.00 0.00 0.00 70 1019.8
20260507045403 66 39 0.0 0.0 0.00 0.00 0.00 69 1019.8
20260507044903 66 39 0.0 0.0 0.00 0.00 0.00 69 1019.9
20260507044405 66 39 0.0 0.0 0.00 0.00 0.00 70 1019.8
20260507043903 65 39 0.0 0.0 0.00 0.00 0.00 72 1019.8
20260507042903 63 39 0.0 0.0 0.00 0.00 0.00 76 1019.8
20260507042405 61 39 0.0 0.0 0.00 0.00 0.00 79 1019.9
20260507041903 60 39 0.0 0.0 0.00 0.00 0.00 81 1019.8
20260507040904 57 39 0.0 0.0 0.00 0.00 0.00 82 1019.7
20260507040404 57 39 0.0 0.0 0.00 0.00 0.00 81 1019.7
20260507035904 57 39 0.0 0.0 0.00 0.00 0.00 81 1019.7
20260507035404 57 39 0.0 0.0 0.00 0.00 0.00 81 1019.6
20260507034904 57 39 0.0 0.0 0.00 0.00 0.00 81 1019.6
20260507034405 57 39 0.0 0.0 0.00 0.00 0.00 81 1019.5
20260507033903 57 39 0.0 0.0 0.00 0.00 0.00 81 1019.4
20260507033403 57 39 0.0 0.0 0.00 0.00 0.00 82 1019.4
20260507032904 57 39 0.0 0.0 0.00 0.00 0.00 82 1019.4
20260507032406 57 39 0.0 0.0 0.00 0.00 0.00 82 1019.3
20260507031905 57 39 0.0 0.0 0.00 0.00 0.00 82 1019.3
20260507031403 57 39 0.0 0.0 0.00 0.00 0.00 82 1019.3
20260507030904 57 39 0.0 0.0 0.00 0.00 0.00 82 1019.4
20260507030404 57 39 0.0 0.0 0.00 0.00 0.00 82 1019.3
20260507025904 57 39 0.0 0.0 0.00 0.00 0.00 83 1019.3
20260507025405 57 39 0.0 0.0 0.00 0.00 0.00 83 1019.3
20260507024903 57 39 0.0 0.0 0.00 0.00 0.00 83 1019.2
20260507024403 57 39 0.0 0.0 0.00 0.00 0.00 83 1019.2
20260507023903 58 39 0.0 0.0 0.00 0.00 0.00 83 1019.1
20260507023405 58 39 0.0 1.0 0.00 0.00 0.00 84 1019.1
20260507022905 57 39 0.0 1.0 0.00 0.00 0.00 84 1019.0
20260507022405 57 32 0.0 1.0 0.00 0.00 0.00 85 1018.9
20260507021904 57 27 0.0 0.0 0.00 0.00 0.00 85 1018.9
20260507021406 57 27 0.0 0.0 0.00 0.00 0.00 84 1019.1
20260507020904 57 27 0.0 0.0 0.00 0.00 0.00 84 1019.1
20260507020406 57 27 0.0 0.0 0.00 0.00 0.00 84 1019.1
20260507015904 57 27 0.0 1.0 0.00 0.00 0.00 84 1019.0
20260507014906 58 27 0.0 1.0 0.00 0.00 0.00 84 1018.8
20260507014404 58 27 0.0 2.0 0.00 0.00 0.00 84 1018.9
20260507013904 57 27 0.0 2.0 0.00 0.00 0.00 85 1018.8
20260507012905 57 22 0.0 1.0 0.00 0.00 0.00 86 1018.9
20260507011903 57 17 0.0 1.0 0.00 0.00 0.00 86 1018.9
20260507011403 57 17 0.0 0.0 0.00 0.00 0.00 86 1018.9
20260507010906 57 17 0.0 0.0 0.00 0.00 0.00 86 1018.8
20260507010403 57 17 0.0 0.0 0.00 0.00 0.00 85 1018.8
20260507005904 57 17 0.0 0.0 0.00 0.00 0.00 85 1018.8
20260507005406 57 17 0.0 0.0 0.00 0.00 0.00 85 1018.8
20260507004904 57 16 0.0 1.0 0.00 0.00 0.00 85 1018.7
20260507004405 57 17 0.0 1.0 0.00 0.00 0.00 85 1018.6
20260507003904 57 23 0.0 0.0 0.00 0.00 0.00 85 1018.5
20260507003404 58 23 0.0 0.0 0.00 0.00 0.00 85 1018.5
20260507002916 58 23 0.0 0.0 0.00 0.00 0.00 85 1018.4
20260507002404 58 23 0.0 1.0 0.00 0.00 0.00 84 1018.4
20260507001903 58 23 0.0 1.0 0.00 0.00 0.00 85 1018.4
20260507001403 58 23 0.0 1.0 0.00 0.00 0.00 85 1018.4
20260507000904 58 20 1.0 1.0 0.00 0.00 0.00 85 1018.4
20260506235904 58 37 0.0 1.0 0.00 0.00 0.00 86 1018.7
20260506234904 57 37 0.0 1.0 0.00 0.00 0.00 86 1018.8
20260506234405 58 37 0.0 0.0 0.00 0.00 0.00 87 1019.0
20260506233905 58 37 0.0 0.0 0.00 0.00 0.00 86 1019.0
20260506233405 58 37 0.0 0.0 0.00 0.00 0.00 86 1018.9
20260506232904 58 37 0.0 0.0 0.00 0.00 0.00 86 1018.9
20260506232403 58 37 0.0 0.0 0.00 0.00 0.00 86 1018.9
20260506231404 58 37 0.0 0.0 0.00 0.00 0.00 86 1018.8
20260506230905 58 37 0.0 0.0 0.00 0.00 0.00 86 1018.8
20260506230404 58 37 0.0 0.0 0.00 0.00 0.00 86 1018.8
20260506225904 58 37 0.0 0.0 0.00 0.00 0.00 86 1018.9
20260506225404 58 37 0.0 0.0 0.00 0.00 0.00 86 1018.8
20260506224905 58 37 0.0 0.0 0.00 0.00 0.00 86 1019.0
20260506224404 58 37 0.0 0.0 0.00 0.00 0.00 86 1018.9
20260506223904 59 37 0.0 0.0 0.00 0.00 0.00 86 1018.9
20260506223406 59 37 0.0 0.0 0.00 0.00 0.00 86 1018.9
20260506222904 59 37 0.0 0.0 0.00 0.00 0.00 86 1019.0
20260506222404 59 37 0.0 0.0 0.00 0.00 0.00 86 1018.9
20260506221904 59 37 0.0 0.0 0.00 0.00 0.00 86 1018.9
20260506221405 59 37 0.0 0.0 0.00 0.00 0.00 86 1018.9
20260506220904 59 37 0.0 0.0 0.00 0.00 0.00 86 1018.9
20260506220404 60 37 0.0 1.0 0.00 0.00 0.00 86 1018.9
20260506215905 60 37 0.0 2.0 0.00 0.00 0.00 86 1018.9
20260506215404 60 37 0.0 2.0 0.00 0.00 0.00 86 1018.9
20260506214903 60 32 0.0 1.0 0.00 0.00 0.00 86 1018.9
20260506213403 60 38 0.0 2.0 0.00 0.00 0.00 86 1019.0
20260506211904 60 32 0.0 1.0 0.00 0.00 0.00 85 1019.1
20260506211404 60 32 0.0 1.0 0.00 0.00 0.00 85 1019.1
20260506210904 60 22 0.0 1.0 0.00 0.00 0.00 85 1019.1
20260506205906 61 22 0.0 1.0 0.00 0.00 0.00 85 1019.2
20260506204904 61 11 0.0 1.0 0.00 0.00 0.00 85 1019.2
20260506204405 61 11 0.0 1.0 0.00 0.00 0.00 85 1019.1
20260506203904 61 11 0.0 1.0 0.00 0.00 0.00 85 1019.1
20260506203404 61 11 0.0 1.0 0.00 0.00 0.00 85 1019.0
20260506202904 61 11 0.0 0.0 0.00 0.00 0.00 85 1019.0
20260506202405 61 11 0.0 0.0 0.00 0.00 0.00 84 1018.9
20260506201903 61 11 0.0 0.0 0.00 0.00 0.00 84 1018.9
20260506201404 61 11 0.0 0.0 0.00 0.00 0.00 85 1018.9
20260506200905 61 11 0.0 1.0 0.00 0.00 0.00 84 1018.9
20260506200404 61 11 0.0 1.0 0.00 0.00 0.00 84 1019.0
20260506195904 61 12 0.0 1.0 0.00 0.00 0.00 84 1018.9
20260506195404 61 12 0.0 1.0 0.00 0.00 0.00 84 1018.9
20260506194903 61 12 0.0 1.0 0.00 0.00 0.00 84 1018.7
20260506193906 61 0 0.0 0.0 0.00 0.00 0.00 83 1018.6
20260506193403 61 1 0.0 0.0 0.00 0.00 0.00 83 1018.5
20260506192905 62 1 0.0 0.0 0.00 0.00 0.00 83 1018.6
20260506192403 62 1 0.0 0.0 0.00 0.00 0.00 83 1018.5
20260506191904 62 1 0.0 0.0 0.00 0.00 0.00 83 1018.5
20260506191404 62 1 0.0 0.0 0.00 0.00 0.00 83 1018.5
20260506190905 62 1 0.0 0.0 0.00 0.00 0.00 84 1018.5
20260506185903 62 1 0.0 1.0 0.00 0.00 0.00 84 1018.5
20260506185403 62 2 0.0 1.0 0.00 0.00 0.00 83 1018.4
20260506184404 62 352 0.0 1.0 0.00 0.00 0.00 83 1018.4
20260506183904 62 349 0.0 1.0 0.00 0.00 0.00 83 1018.3
20260506183404 63 348 0.0 1.0 0.00 0.00 0.00 83 1018.2
20260506182905 63 348 0.0 1.0 0.00 0.00 0.00 83 1018.2
20260506181904 63 306 0.0 1.0 0.00 0.00 0.00 83 1018.0
20260506181403 63 275 0.0 1.0 0.00 0.00 0.00 82 1017.9
20260506180903 63 233 0.0 0.0 0.00 0.00 0.00 82 1018.0
20260506180403 64 233 0.0 0.0 0.00 0.00 0.00 81 1017.9
20260506175903 64 233 0.0 0.0 0.00 0.00 0.00 81 1017.8
20260506175404 64 233 0.0 0.0 0.00 0.00 0.00 80 1017.7
20260506174904 64 233 0.0 0.0 0.00 0.00 0.00 80 1017.7
20260506174405 64 233 0.0 0.0 0.00 0.00 0.00 80 1017.7
20260506173904 65 233 0.0 0.0 0.00 0.00 0.00 79 1017.5
20260506173404 66 233 0.0 1.0 0.00 0.00 0.00 78 1017.5
20260506172904 66 233 0.0 1.0 0.00 0.00 0.00 77 1017.4
20260506172405 67 233 0.0 1.0 0.00 0.00 0.00 76 1017.5
20260506171903 68 197 0.0 1.0 0.00 0.00 0.00 75 1017.4
20260506171403 69 196 0.0 1.0 0.00 0.00 0.00 73 1017.4
20260506170906 69 229 0.0 0.0 0.00 0.00 0.00 72 1017.4
20260506165904 71 229 0.0 2.0 0.00 0.00 0.00 70 1017.4
20260506165404 72 221 1.0 2.0 0.00 0.00 0.00 68 1017.4
20260506164904 72 208 0.0 3.0 0.00 0.00 0.00 68 1017.3
20260506164405 72 218 1.0 3.0 0.00 0.00 0.00 67 1017.3
20260506163904 73 197 1.0 3.0 0.00 0.00 0.00 66 1017.4
20260506162906 74 221 2.0 3.0 0.00 0.00 0.00 63 1017.4
20260506161903 76 206 2.0 7.0 0.00 0.00 0.00 56 1017.4
20260506161405 77 217 2.0 7.0 0.00 0.00 0.00 48 1017.3
20260506160405 77 207 2.0 7.0 0.00 0.00 0.00 46 1017.3
20260506154404 78 219 2.0 6.0 0.00 0.00 0.00 52 1017.3
20260506153405 79 215 2.0 6.0 0.00 0.00 0.00 50 1017.4
20260506152904 79 217 2.0 7.0 0.00 0.00 0.00 48 1017.4
20260506152404 78 194 3.0 9.0 0.00 0.00 0.00 45 1017.5
20260506151905 78 207 5.0 9.0 0.00 0.00 0.00 46 1017.4
20260506151403 79 203 4.0 9.0 0.00 0.00 0.00 45 1017.4
20260506150404 80 165 1.0 5.0 0.00 0.00 0.00 46 1017.4
20260506145903 80 203 1.0 8.0 0.00 0.00 0.00 46 1017.3
20260506145404 79 198 2.0 8.0 0.00 0.00 0.00 46 1017.4
20260506144403 80 208 2.0 6.0 0.00 0.00 0.00 45 1017.5
20260506143903 79 199 2.0 6.0 0.00 0.00 0.00 46 1017.5
20260506143403 80 224 2.0 9.0 0.00 0.00 0.00 46 1017.6
20260506142903 80 196 5.0 9.0 0.00 0.00 0.00 46 1017.6
20260506142404 80 196 3.0 8.0 0.00 0.00 0.00 46 1017.6
20260506141904 79 202 3.0 8.0 0.00 0.00 0.00 47 1017.6
20260506141404 80 208 5.0 8.0 0.00 0.00 0.00 45 1017.6
20260506140406 80 212 2.0 9.0 0.00 0.00 0.00 43 1017.7
20260506135904 80 196 2.0 9.0 0.00 0.00 0.00 44 1017.7
20260506135405 80 174 3.0 10.0 0.00 0.00 0.00 45 1017.7
20260506134904 80 200 3.0 10.0 0.00 0.00 0.00 44 1017.7
20260506133903 80 217 1.0 10.0 0.00 0.00 0.00 47 1017.8
20260506133405 80 216 3.0 9.0 0.00 0.00 0.00 45 1017.9
20260506132903 80 201 3.0 9.0 0.00 0.00 0.00 44 1017.9
20260506132404 80 202 3.0 12.0 0.00 0.00 0.00 42 1017.9
20260506131906 80 217 3.0 12.0 0.00 0.00 0.00 42 1018.0
20260506131403 81 189 2.0 7.0 0.00 0.00 0.00 44 1018.0
20260506130903 80 194 2.0 8.0 0.00 0.00 0.00 43 1018.0
20260506130403 80 148 2.0 8.0 0.00 0.00 0.00 42 1018.1
20260506125905 80 215 3.0 12.0 0.00 0.00 0.00 44 1018.1
20260506125406 80 50 2.0 12.0 0.00 0.00 0.00 45 1018.1
20260506124903 80 203 2.0 8.0 0.00 0.00 0.00 45 1018.2
20260506124405 80 217 3.0 8.0 0.00 0.00 0.00 46 1018.2
20260506123903 80 216 3.0 8.0 0.00 0.00 0.00 44 1018.2
20260506123405 80 194 3.0 9.0 0.00 0.00 0.00 49 1018.3
20260506122903 81 196 3.0 9.0 0.00 0.00 0.00 46 1018.3
20260506121904 80 126 1.0 8.0 0.00 0.00 0.00 50 1018.4
20260506121404 79 211 3.0 8.0 0.00 0.00 0.00 51 1018.4
20260506120903 78 196 2.0 5.0 0.00 0.00 0.00 53 1018.5
20260506120403 79 248 1.0 6.0 0.00 0.00 0.00 53 1018.5
20260506115904 79 209 1.0 6.0 0.00 0.00 0.00 53 1018.6
20260506115405 78 261 2.0 6.0 0.00 0.00 0.00 54 1018.6
20260506114905 78 194 3.0 7.0 0.00 0.00 0.00 55 1018.7
20260506114404 78 219 3.0 7.0 0.00 0.00 0.00 56 1018.7
20260506113904 78 216 3.0 6.0 0.00 0.00 0.00 55 1018.8
20260506113404 78 210 2.0 7.0 0.00 0.00 0.00 56 1018.8